Terug naar catalogus

STARLINK-3098

ActiefCommunicatieVLEO
NORAD 49442·PAYLOAD·🇺🇸 United States

Gelanceerd Nov 13, 2021 vanaf Cape Canaveral Space Force Station

Loading…

Volgende Passages (komende 24 uur)

TLE

VersSource: CelesTrak SupGP

Epoch: Sep 14, 2026, 21:28 UTC

1 49442C 21104AL  26257.89493056  .00778510  00000+0  14286-1 0  2573
2 49442  53.1591  63.0046 0001341  83.4454  59.1734 15.48281412    11

Volg STARLINK-3098 in realtime met AllMySat

Download on the App Store